Погода в Гемене

Демократическая Республика Конго     3°14′38″N   19°46′56″E
темп.,
°C
ветер,
м/с
пор.,
м/с
влажн.,
%
обл.,
%
осадки,
мм/ч
давл.,
гПа
погр.,
м
27 ноября, сб
сб2701:00+21ююв117555 0.0 101025
04:00+20ю119398 0.0 101111
07:00+24юв127897 0.0 1012216
10:00+33ююв114162 0.0 10111280
13:00+36св242662 0.0 10073203
16:00+33св243322 0.0 10061127
19:00+26ссв1153100 0.0 100823
22:00+24ссв115988 0.0 101011
28 ноября, вс
вс2801:00+22св116184 0.0 100911
04:00+21ююв1165100 0.0 100911
07:00+23юв1162100 0.0 101125
10:00+30ссв123890 0.0 1011705
13:00+32вюв123157 0.0 10081143
16:00+33ю123182 0.0 1005809
19:00+24юв115499 0.0 100811
22:00+23зсз0157100 0.0 100911
29 ноября, пн
пн2901:00+21ю11678 0.0 100912
04:00+20ююз118411 0.0 100911
07:00+24юз127281 0.0 1011172
10:00+33зюз1140100 0.0 10111096
13:00+36ююз132880 0.0 10062858
16:00+29зюз115075 0.0 100514
19:00+26юв3861100 0.0 1008279
22:00+23юв2986100 0.0 1010254
30 ноября, вт
вт3001:00+22ю1789100 0.0 1009245
04:00+21ююв159792 0.0 1009130
07:00+23юв138393 0.0 1011195
10:00+31ююв2248100 0.0 10111041
13:00+34ю1238100 0.0 10071938
16:00+29вюв256080 0.0 1007455
19:00+24вюв1179100 0.0 100919
22:00+22ссз14918 0.0 1010110
1 декабря, ср
ср101:00+21ююв119256 0.0 101014
04:00+21ю1394100 0.0 100997
07:00+24ю137798 0.0 1010232
10:00+27ююв136359 0.0 1011775
13:00+30ююв2248100 0.0 10081418
16:00+29ююз1352100 0.0 1006408
19:00+24вюв12775 0.9 100832
22:00+22ю118520 0.0 101011